Weather History for Memphis, TN

Change the Weather History Date:

Sunday, October 7, 2012

  Actual Average Record
Temperature  
Mean Temperature 53 °F 67 °F  
Max Temperature 60 °F 78 °F 93 °F (2007)
Min Temperature 45 °F 57 °F 37 °F (1964)
Degree Days  
Heating Degree Days 12 2  
Month to date heating degree days 26 12  
Since 1 July heating degree days 28 23  
Cooling Degree Days 0 4  
Month to date cooling degree days 9 34  
Year to date cooling degree days 2563 2185  
Growing Degree Days 2 (Base 50)    
Moisture  
Dew Point 39 °F    
Average Humidity 63    
Maximum Humidity 86    
Minimum Humidity 39    
Precipitation  
Precipitation T in 0.11 in 2.11 in (2008)
Month to date precipitation 1.20 0.82  
Year to date precipitation 27.81 39.29  
Snow  
Snow 0.00 in 0.00 in 0.00 in (2002)
Month to date snowfall 0.0 0.0  
Since 1 July snowfall 0.0 0.0  
Since 1 September snowfall 0.0 0.0  
Snow Depth 0.00 in    
Sea Level Pressure  
Sea Level Pressure 30.21 in    
Wind  
Wind Speed 7 mph (North)    
Max Wind Speed 14 mph    
Max Gust Speed 18 mph    
Visibility 10 miles    
Events      
T = Trace of Precipitation, MM = Missing Value Source: NWS Daily Summary

Daily Weather History Graph

Daily Weather History Graph

Search for Another Location

Airport:

Trip Planner

Search our weather history database for the weather conditions in past years. The results will help you decide how hot, cold, wet, or windy it might be!

Date:

Astronomy

Oct. 07, 2012 Rise Set
Actual Time 6:59 AM CDT 6:34 PM CDT
Civil Twilight 6:34 AM CDT 7:00 PM CDT
Nautical Twilight 6:05 AM CDT 7:29 PM CDT
Astronomical Twilight 5:35 AM CDT 7:58 PM CDT
Moon 11:55 PM CDT (10/7) 1:27 PM CDT (10/7)
Length of Visible Light 12h 25m
Length of Day
11h 35m
Waning Gibbous, 56% of the Moon is Illuminated
Oct 7
Waning Gibbous
Oct 8
Last Quarter
Oct 15
New
Oct 21
First Quarter
Oct 29
Full

Hourly Weather History & Observations

Time (CDT) Temp. Windchill Dew Point Humidity Pressure Visibility Wind Dir Wind Speed Gust Speed Precip Events Conditions
12:54 AM 48.0 °F - 43.0 °F 83% 30.19 in 10.0 mi North 6.9 mph - N/A   Overcast
1:54 AM 48.0 °F - 44.1 °F 86% 30.20 in 10.0 mi North 5.8 mph - N/A   Overcast
2:54 AM 48.0 °F - 43.0 °F 83% 30.18 in 10.0 mi North 8.1 mph - N/A   Overcast
3:54 AM 48.0 °F - 42.1 °F 80% 30.20 in 10.0 mi North 8.1 mph - N/A   Overcast
4:54 AM 46.9 °F - 41.0 °F 80% 30.21 in 10.0 mi North 9.2 mph - N/A   Overcast
5:54 AM 46.9 °F - 39.0 °F 74% 30.22 in 10.0 mi North 8.1 mph - N/A   Overcast
6:54 AM 45.0 °F 40.6 °F 39.0 °F 80% 30.24 in 10.0 mi North 8.1 mph - N/A   Scattered Clouds
7:39 AM 44.6 °F 40.7 °F 39.2 °F 81% 30.24 in 10.0 mi North 6.9 mph - N/A   Mostly Cloudy
7:54 AM 45.0 °F 40.1 °F 39.9 °F 82% 30.26 in 10.0 mi North 9.2 mph - N/A   Mostly Cloudy
8:54 AM 46.9 °F - 39.9 °F 77% 30.27 in 10.0 mi North 11.5 mph - N/A   Mostly Cloudy
9:54 AM 50.0 °F - 39.0 °F 66% 30.26 in 10.0 mi NNE 6.9 mph - N/A   Mostly Cloudy
10:54 AM 52.0 °F - 37.0 °F 57% 30.26 in 10.0 mi NNE 6.9 mph - N/A   Mostly Cloudy
11:54 AM 55.9 °F - 39.0 °F 53% 30.25 in 10.0 mi North 9.2 mph - N/A   Scattered Clouds
12:54 PM 57.0 °F - 37.0 °F 47% 30.25 in 10.0 mi Calm Calm - N/A   Scattered Clouds
1:54 PM 57.9 °F - 39.9 °F 51% 30.20 in 10.0 mi Variable 5.8 mph - N/A   Mostly Cloudy
2:54 PM 57.9 °F - 32.0 °F 37% 30.19 in 10.0 mi North 5.8 mph - N/A   Mostly Cloudy
3:54 PM 59.0 °F - 35.1 °F 41% 30.18 in 10.0 mi Variable 4.6 mph - N/A   Scattered Clouds
4:54 PM 57.0 °F - 36.0 °F 45% 30.17 in 10.0 mi North 9.2 mph - N/A   Mostly Cloudy
5:54 PM 55.0 °F - 35.1 °F 47% 30.17 in 10.0 mi North 9.2 mph - N/A   Mostly Cloudy
6:54 PM 54.0 °F - 37.0 °F 53% 30.18 in 10.0 mi NNW 5.8 mph - N/A   Mostly Cloudy
7:54 PM 54.0 °F - 37.0 °F 53% 30.18 in 10.0 mi North 3.5 mph - N/A   Mostly Cloudy
8:54 PM 54.0 °F - 37.0 °F 53% 30.19 in 10.0 mi North 5.8 mph - N/A   Mostly Cloudy
9:54 PM 53.1 °F - 37.9 °F 57% 30.20 in 10.0 mi North 5.8 mph - N/A   Mostly Cloudy
10:54 PM 54.0 °F - 37.0 °F 53% 30.18 in 10.0 mi NNE 8.1 mph - N/A   Overcast
11:54 PM 53.1 °F - 37.9 °F 57% 30.18 in 10.0 mi North 5.8 mph - N/A   Overcast